Location: ????????
(56.0167°N, 38.0333°E)
Time: 11:22:21
(UTC+00:00)

Cosmos 2292 Rocket - Pass Details

Date: 19 May 2025
Orbit: 368 x 1267 km, 83.0° (Epoch: 13 June)

Event Time Altitude Azimuth Distance (km) Brightness Sun altitude
Exits shadow 23:03:12 10° 174° (S) 2,495 6.1 -11.2°
Maximum altitude 23:08:39 59° 97° (E) 836 4.3 -10.9°
Drops below altitude 10° 23:12:56 10° 18° (NNE) 1,965 7.7 -10.6°
Sets 23:14:54 0° 15° (NNE) 2,754 8.8 -10.5°
